sat.trackr.live / text

‹ back to catalog

STARLINK-37258

NORAD 68951 · 2026-099A

PAYLOAD ACTIVE UNKNOWN

§ Identity

Operator
Country
US
Launch date
2026-05-01
Launch site
AFETR
Launch vehicle
Mass (kg)
RCS (m²)

Purposes: comms

External: N2YO · Heavens-Above · Gunter

§ Orbital elements

Epoch: 2026-05-25T04:00:03.998880Z

Period
91.95 min
Inclination
53.1590°
Eccentricity
0.0000944
Mean motion
15.66147626 rev/d
Perigee alt
369.3 km
Apogee alt
370.6 km
Semi-major
6,748.1 km
B*
-2.0436e-2
RAAN
270.1283°
Arg perigee
79.5439°
Mean anomaly
186.0186°
Rev number
496

§ Raw data

STARLINK-372581 68951U 26099A   26145.16671295 -.01897702  00000+0 -20436-1 0  99912 68951  53.1590 270.1283 0000944  79.5439 186.0186 15.66147626  4964

JSON: /api/v1/satellites/68951 · /tle

For live sub-satellite position, see the globe view (requires WebGL).

§ Visibility from observer

Set your observer location to see the next 7 days of passes ≥ 10°. The values pass through the URL so the page stays shareable.

No JS? Fill the form by hand. The geolocation button needs JavaScript.